Location: Franzen
(48.6167°N, 15.3833°E)
Time: 21:33:38
(UTC+00:00)

Cosmos 1709 Rocket - Pass Details

Date: 02 August 2021
Orbit: 947 x 1002 km, 82.9° (Epoch: 22 September)

Event Time Altitude Azimuth Distance (km) Brightness Sun altitude
Exits shadow 01:15:26 - 266° (W) 2,864 6.1 -17.5°
Reaches altitude 10° 01:15:56 10° 269° (W) 2,768 6.1 -17.5°
Maximum altitude 01:19:24 15° 303° (WNW) 2,429 6.1 -17.2°
Drops below altitude 10° 01:22:54 10° 336° (NNW) 2,786 6.8 -16.9°
Sets 01:26:48 0° 360° (N) 3,742 8.0 -16.5°
